Weather History for 12424 - September, 2013

Change the Weather History Date:

Sunday, September 1, 2013

  Actual Average Record
Temperature  
Mean Temperature 58 °F -  
Max Temperature 63 °F 67 °F - ()
Min Temperature 53 °F 48 °F - ()
Degree Days  
Heating Degree Days 7    
Growing Degree Days 8 (Base 50)    
Moisture  
Dew Point 49 °F    
Average Humidity 67    
Maximum Humidity 94    
Minimum Humidity 38    
Precipitation  
Precipitation 0.00 in 0.06 in - ()
Sea Level Pressure  
Sea Level Pressure 30.13 in    
Wind  
Wind Speed 9 mph ()    
Max Wind Speed 18 mph    
Max Gust Speed -    
Visibility 6.7 miles    
Events Rain    
T = Trace of Precipitation, MM = Missing Value Source: Averaged Metar Reports

Daily Weather History Graph

Daily Weather History Graph

Search for Another Location

Airport or City:

Trip Planner

Search our weather history database for the weather conditions in past years. The results will help you decide how hot, cold, wet, or windy it might be!

Date:

Astronomy

Sep. 01, 2013 Rise Set
Actual Time 6:05 AM CEST 7:38 PM CEST
Civil Twilight 5:31 AM CEST 8:12 PM CEST
Nautical Twilight 4:48 AM CEST 8:54 PM CEST
Astronomical Twilight 4:02 AM CEST 9:40 PM CEST
Moon 1:54 AM CEST (9/1) 5:18 PM CEST (9/1)
Length of Visible Light 14h 41m
Length of Day
13h 32m
Waning Crescent, 15% of the Moon is Illuminated
Sep 1
Waning Crescent
Sep 5
New
Sep 12
First Quarter
Sep 19
Full
Sep 27
Last Quarter

Hourly Weather History & Observations

Time (CEST) Temp. Dew Point Humidity Pressure Visibility Wind Dir Wind Speed Gust Speed Precip Events Conditions
12:00 AM 64.4 °F 55.4 °F 73% 30.04 in - WNW 6.9 mph - N/A   Clear
12:30 AM 64.4 °F 55.4 °F 73% 30.04 in - WNW 6.9 mph - N/A   Clear
1:00 AM 62.6 °F 55.4 °F 77% 30.04 in 6.2 mi West 3.5 mph - N/A Rain Light Rain
1:30 AM 62.6 °F 57.2 °F 82% 30.04 in 6.2 mi WNW 3.5 mph - N/A Rain Light Rain
2:00 AM 62.6 °F 57.2 °F 82% 30.04 in 6.2 mi West 5.8 mph - N/A Rain Light Rain
2:30 AM 62.6 °F 57.2 °F 82% 30.06 in 6.2 mi West 8.1 mph - N/A   Scattered Clouds
3:00 AM 60.8 °F 59.0 °F 94% 30.06 in 6.2 mi West 12.7 mph - N/A Rain Light Rain Showers
3:30 AM 60.8 °F 59.0 °F 94% 30.06 in 6.2 mi West 8.1 mph - N/A Rain Light Rain Showers
4:00 AM 60.8 °F 59.0 °F 94% 30.06 in 6.2 mi West 10.4 mph - N/A Rain Light Rain Showers
4:30 AM 60.8 °F 59.0 °F 94% 30.06 in 6.2 mi WNW 11.5 mph - N/A Rain Light Rain Showers
5:00 AM 60.8 °F 57.2 °F 88% 30.06 in 6.2 mi NW 18.4 mph - N/A   Scattered Clouds
5:30 AM 59.0 °F 57.2 °F 94% 30.06 in 6.2 mi NW 15.0 mph - N/A   Mostly Cloudy
6:00 AM 59.0 °F 55.4 °F 88% 30.09 in 6.2 mi NW 10.4 mph - N/A   Partly Cloudy
6:30 AM 57.2 °F 55.4 °F 94% 30.09 in 6.2 mi NW 10.4 mph - N/A   Partly Cloudy
7:00 AM 57.2 °F 55.4 °F 94% 30.09 in 6.2 mi WNW 12.7 mph - N/A   Partly Cloudy
7:30 AM 57.2 °F 53.6 °F 88% 30.12 in 6.2 mi NW 13.8 mph - N/A   Partly Cloudy
8:00 AM 56 °F 53 °F 85% 30.14 in 19 mi WNW 11.2 mph - -   Partly Cloudy
8:00 AM 59.0 °F 53.6 °F 82% 30.12 in 6.2 mi WNW 12.7 mph - N/A   Partly Cloudy
8:30 AM 57.2 °F 53.6 °F 88% 30.12 in 6.2 mi WNW 11.5 mph - N/A   Scattered Clouds
9:00 AM 59.0 °F 51.8 °F 77% 30.15 in 6.2 mi NW 13.8 mph - N/A   Mostly Cloudy
9:30 AM 60.8 °F 53.6 °F 77% 30.15 in 6.2 mi WNW 9.2 mph - N/A   Mostly Cloudy
10:00 AM 59.0 °F 51.8 °F 77% 30.15 in 6.2 mi WNW 13.8 mph - N/A   Partly Cloudy
10:30 AM 60.8 °F 48.2 °F 63% 30.18 in 6.2 mi NW 15.0 mph - N/A   Scattered Clouds
11:00 AM 60 °F 45 °F 46% 30.17 in 25 mi WNW 13.4 mph - -   Partly Cloudy
11:00 AM 62.6 °F 48.2 °F 59% 30.15 in 6.2 mi WNW 17.3 mph - N/A   Partly Cloudy
11:30 AM 60.8 °F 44.6 °F 55% 30.15 in 6.2 mi WNW 18.4 mph - N/A   Mostly Cloudy
12:00 PM 60.8 °F 44.6 °F 55% 30.18 in 6.2 mi NW 13.8 mph - N/A   Mostly Cloudy
12:30 PM 60.8 °F 44.6 °F 55% 30.18 in 6.2 mi NW 13.8 mph - N/A   Mostly Cloudy
1:00 PM 60.8 °F 44.6 °F 55% 30.18 in - NW 16.1 mph - N/A   Clear
1:30 PM 64.4 °F 42.8 °F 45% 30.18 in - WNW 18.4 mph - N/A   Clear
2:00 PM 61 °F 42 °F 39% 30.18 in 31 mi West 8.9 mph - -   Mostly Cloudy
2:00 PM 62.6 °F 42.8 °F 48% 30.18 in - WNW 10.4 mph - N/A   Clear
2:30 PM 64.4 °F 44.6 °F 49% 30.18 in - WNW 13.8 mph - N/A   Clear
3:00 PM 62.6 °F 42.8 °F 48% 30.18 in - WNW 15.0 mph - N/A   Clear
3:30 PM 62.6 °F 42.8 °F 48% 30.18 in - WNW 12.7 mph - N/A   Clear
4:00 PM 64.4 °F 42.8 °F 45% 30.15 in - WNW 15.0 mph - N/A   Clear
4:30 PM 64.4 °F 42.8 °F 45% 30.15 in - WNW 11.5 mph - N/A   Clear
5:00 PM 63 °F 44 °F 38% 30.17 in 31 mi WNW 11.2 mph - -   Mostly Cloudy
5:00 PM 64.4 °F 42.8 °F 45% 30.15 in - WNW 12.7 mph - N/A   Clear
5:30 PM 62.6 °F 42.8 °F 48% 30.15 in - WNW 13.8 mph - N/A   Clear
6:00 PM 62.6 °F 44.6 °F 52% 30.15 in - NW 11.5 mph - N/A   Clear
6:30 PM 62.6 °F 42.8 °F 48% 30.15 in - WNW 11.5 mph - N/A   Clear
7:00 PM 62.6 °F 44.6 °F 52% 30.15 in - West 10.4 mph - N/A   Clear
7:30 PM 60.8 °F 44.6 °F 55% 30.15 in - West 6.9 mph - N/A   Clear
8:00 PM 57 °F 46 °F 56% 30.17 in 25 mi West 4.5 mph - -   Partly Cloudy
8:00 PM 60.8 °F 46.4 °F 59% 30.15 in - West 5.8 mph - N/A   Clear
8:30 PM 57.2 °F 44.6 °F 63% 30.15 in - West 5.8 mph - N/A   Clear
9:00 PM 57.2 °F 44.6 °F 63% 30.15 in - West 6.9 mph - N/A   Clear
9:30 PM 55.4 °F 44.6 °F 67% 30.15 in - WSW 6.9 mph - N/A   Clear
10:00 PM 55.4 °F 44.6 °F 67% 30.18 in - WSW 6.9 mph - N/A   Clear
10:30 PM 55.4 °F 44.6 °F 67% 30.18 in - WSW 8.1 mph - N/A   Clear
11:00 PM 53 °F 46 °F 69% 30.18 in 25 mi WSW 8.9 mph - -   Partly Cloudy
11:00 PM 55.4 °F 44.6 °F 67% 30.18 in - WSW 8.1 mph - N/A   Clear
11:30 PM 55.4 °F 44.6 °F 67% 30.18 in - West 8.1 mph - N/A   Clear